Torna al catalogo

IABS R/B

AttivoGEO
NORAD 27693·ROCKET BODY·🇺🇸 United States

Lanciato Mar 11, 2003 da Cape Canaveral Space Force Station

Loading…

TLE

AggiornatoSource: Space-Track

Epoca: Sep 13, 2026, 13:11 UTC

1 27693U 03008C   26256.54979655  .00000075  00000-0  00000-0 0  9991
2 27693  13.5354   9.6507 0028018 223.4016 136.3988  1.01117579 27519

Traccia IABS R/B in tempo reale con AllMySat

Download on the App Store